FENGYUN 1C DEB

Satellite information

Favourite Embed

Satellite Type and Status

DEBRISIN ORBIT

Key statistics

Satellite FENGYUN 1C DEB at a glance.

Uptime

9610

Days in orbit

Revolutions

≈ 14.9

Per day

Orbit

SSO

Sun Synchronous Orbit

Inclination

99.0

Latest

Satellite identification and parameters

Extended collection of information and parameters for FENGYUN 1C DEB.

Object identification

Identified? True

Debris? True

Object name: FENGYUN 1C DEB

International designator: 1999-025DNE

Object number (NORAD): 35174

Object ID (CCSDS): 35174

Country: PEOPLES REPUBLIC OF CHINA (PRC)

Current information (Y/N): Y

RCS size: SMALL

Orbital parameters

Period: 96.702 minutes

Inclination: 98.9594 deg

SMA: 6978.847 km

Apoapsis: 727.817 km

Periapsis: 473.606 km

RAAN: 196.0497 deg

Eccentricy: 0.01821298

Argument of periapsis: 175.468 deg

Mean anomaly: 184.8237 deg

Mean motion: 14.89111727 rev/day

Mean motion (dot): 0.00012112 rev/day2

B* drag term: 0.00094475585 1/REarth

Two-line elements (TLE)

Creation date: Aug. 25, 2025, 9:12 p.m.

Reference frame: TEME

Reference center: EARTH

Epoch: Aug. 25, 2025, 2:41 a.m. UTC

TLE line 0: 0 FENGYUN 1C DEB

TLE line 1: 1 35174U 99025DNE 25237.11206143 .00012112 00000-0 94476-3 0 9992

TLE line 2: 2 35174 98.9594 196.0497 0182130 175.4680 184.8237 14.89111727885294

Live tracking on map

Real-time ground track for satellite FENGYUN 1C DEB.

In-orbit conjunctions

A list of the most updated potential collisions computed for object FENGYUN 1C DEB.

Target Orbit TCA Probability of collision Miss distance Type
FENGYUN 1C DEB SSO 2025-08-25 13:58:58 0.0002339637 141.0 (m) DEBRIS
SL-3 R/B LEO 2024-10-26 11:02:23 0.0001137203 285.0 (m) ROCKET BODY
NOAA 17 DEB SSO 2024-09-25 13:04:48 0.0008682436 34.0 (m) DEBRIS
ELECTRON R/B LEO 2024-09-20 09:33:32 0.0001185923 579.0 (m) ROCKET BODY

Associated space launch

Chinese polar orbiting meteorological satellite

FENGYUN 1C DEB was lifted into orbit during the mission ‘Long March 4B | Feng Yun 1C’, on board a Long March 4B space rocket.

The launch took place on May 10, 1999, 1:33 a.m. from Launch Complex 7.

For more information about the launch, click the button.

Launch to space Long March 4B | Feng Yun 1C
Long March 4B | Feng Yun 1C

Agency: N/A

Status: Launch Successful

Launch date: May 10, 1999, 1:33 a.m. UTC

Rocket: Long March 4B

Launch pad: Launch Complex 7

Location: Taiyuan Satellite Launch Center, People's Republic of China

...

Latest news about this satellite

There are no fresh news available about this satellite. Check back as we update our databases every day.


Newsletter sign-up

Weekly statistics, charts and insights to help you stay on top of the space industry.